Etusivu
METAR-TAF:

METAR-TAF

Lentoasemat :

Copper Harbor, Michigan, Yhdysvallat

Leveyspiiri: 47-28-01N, Pituuspiiri: 087-52-30W, korkeus merenpinnasta: 190 m

Tämänhetkinen sää

Tämä raportti tehtiin 13 minuuttia sitten, kello 09.51 UTC
Tuuli 21 kn pohjoisesta/koillisesta puuskistuen 27 kn:hen
Lämpötila -2°C
Kosteus 86%
Ilmanpaine 1009 hPa

METAR: KP59 180951Z AUTO 02021G27KT M02/M04 A2981 RMK AO1 PK WND 02027/0947 SLP107 T10221044

Aika: 05:04 (10:04 UTC)


TAF: puuttuu

Säähavainnot ja -ennusteet yli 4000 lentoasemalta (METAR- ja TAF-raportit).

Käytössä olevat sääasemat on merkitty karttaan keltaisilla ja punaisilla pisteillä.

Aseta hiiri pisteen päälle nähdäksesi sääaseman nimen.

Klikkaa sitten nähdäksesi säähavainnot ja -ennusteet.

Kartan vaihtaminen: klikkaa mustalla rastilla varustettuja vihreitä pisteitä, niin voit zoomata sisään; viivalla varustettua vihreää pistettä, niin voit zoomata ulos tai vihreitä nuolia, niin pääset viereisille kartoille.


METAR-TAF: